When you browse on this site, cookies collect data to enhance your experience and personalize the content and advertising you see.
Visit our Privacy Policy to learn more. By continuing to use the site, you agree to this use of cookies and data.
  • In France
  • List of Countries
  • For 7 days
  • Water Temperature
  • Satellite Maps
  • Weather Map
  • Weather Widgets
  • user-avatar
    Login

    Hourly Weather Varna

    Today, 27 May, Monday

    Time Temperature Precipitation Wind Pressure Humidity
    00:00 +16°C° 0 mm 1 mps 747 mmHg 84%
    01:00 +16°C° 0 mm 1 mps 747 mmHg 84%
    02:00 +16°C° 0 mm 1 mps 747 mmHg 84%
    03:00 +16°C° 0 mm 1 mps 747 mmHg 84%
    04:00 +16°C° 0 mm 1 mps 747 mmHg 84%
    05:00 +16°C° 0 mm 1 mps 747 mmHg 84%
    06:00 +19°C° 0 mm 1 mps 747 mmHg 79%
    07:00 +20°C° 0 mm 1 mps 747 mmHg 75%
    08:00 +21°C° 0 mm 2 mps 748 mmHg 71%
    09:00 +23°C° 0 mm 2 mps 748 mmHg 68%
    10:00 +24°C° 0 mm 3 mps 748 mmHg 65%
    11:00 +23°C° 0 mm 4 mps 748 mmHg 63%
    12:00 +23°C° 0 mm 4 mps 747 mmHg 62%
    13:00 +23°C° 0 mm 4 mps 747 mmHg 62%
    14:00 +23°C° 0 mm 4 mps 747 mmHg 61%
    15:00 +22°C° 0 mm 4 mps 747 mmHg 64%
    16:00 +22°C° 0 mm 4 mps 747 mmHg 66%
    17:00 +21°C° 0 mm 4 mps 747 mmHg 69%
    18:00 +20°C° 0 mm 3 mps 746 mmHg 76%
    19:00 +18°C° 0 mm 3 mps 746 mmHg 82%
    20:00 +16°C° 0 mm 3 mps 746 mmHg 89%
    21:00 +16°C° 0 mm 2 mps 746 mmHg 90%
    22:00 +16°C° 0 mm 2 mps 746 mmHg 90%
    23:00 +16°C° 0 mm 2 mps 746 mmHg 91%

    Tomorrow, 28 May, Tuesday

    Time Temperature Precipitation Wind Pressure Humidity
    00:00 +16°C° 0 mm 2 mps 746 mmHg 91%
    01:00 +15°C° 0 mm 2 mps 745 mmHg 92%
    02:00 +15°C° 0 mm 2 mps 745 mmHg 92%
    03:00 +15°C° 0 mm 2 mps 745 mmHg 92%
    04:00 +15°C° 0 mm 2 mps 745 mmHg 92%
    05:00 +15°C° 0 mm 2 mps 744 mmHg 93%
    06:00 +17°C° 0 mm 2 mps 744 mmHg 88%
    07:00 +18°C° 0 mm 3 mps 744 mmHg 83%
    08:00 +20°C° 0 mm 3 mps 744 mmHg 77%
    09:00 +21°C° 0 mm 3 mps 744 mmHg 74%
    10:00 +22°C° 0 mm 3 mps 744 mmHg 70%
    11:00 +23°C° 0 mm 4 mps 744 mmHg 66%
    12:00 +25°C° 0 mm 4 mps 744 mmHg 65%
    13:00 +25°C° 0 mm 4 mps 743 mmHg 65%
    14:00 +25°C° 0 mm 4 mps 743 mmHg 64%
    15:00 +25°C° 0 mm 4 mps 742 mmHg 66%
    16:00 +23°C° 0 mm 4 mps 742 mmHg 68%
    17:00 +24°C° 0 mm 3 mps 742 mmHg 70%
    18:00 +21°C° 0 mm 3 mps 742 mmHg 75%
    19:00 +20°C° 0 mm 3 mps 741 mmHg 79%
    20:00 +18°C° 0 mm 2 mps 741 mmHg 83%
    21:00 +18°C° 0 mm 3 mps 741 mmHg 85%
    22:00 +18°C° 0 mm 3 mps 742 mmHg 87%
    23:00 +18°C° 0 mm 4 mps 742 mmHg 89%

    Day after tomorrow, 29 May, Wednesday

    Time Temperature Precipitation Wind Pressure Humidity
    00:00 +17°C° 0 mm 3 mps 742 mmHg 86%
    01:00 +17°C° 0 mm 3 mps 742 mmHg 84%
    02:00 +17°C° 0 mm 3 mps 742 mmHg 81%
    03:00 +16°C° 0 mm 3 mps 742 mmHg 82%
    04:00 +16°C° 0 mm 3 mps 742 mmHg 83%
    05:00 +14°C° 0 mm 3 mps 742 mmHg 84%
    06:00 +17°C° 0 mm 3 mps 742 mmHg 79%
    07:00 +19°C° 0 mm 3 mps 742 mmHg 74%
    08:00 +21°C° 0 mm 3 mps 742 mmHg 69%
    09:00 +24°C° 0 mm 3 mps 743 mmHg 65%
    10:00 +25°C° 0 mm 3 mps 743 mmHg 62%
    11:00 +27°C° 0 mm 3 mps 743 mmHg 58%
    12:00 +28°C° 0 mm 3 mps 743 mmHg 56%
    13:00 +28°C° 0 mm 4 mps 743 mmHg 54%
    14:00 +29°C° 0 mm 4 mps 743 mmHg 52%
    15:00 +28°C° 0 mm 4 mps 743 mmHg 55%
    16:00 +27°C° 0 mm 4 mps 742 mmHg 59%
    17:00 +27°C° 0 mm 4 mps 742 mmHg 62%
    18:00 +25°C° 0 mm 3 mps 742 mmHg 67%
    19:00 +22°C° 0 mm 3 mps 742 mmHg 71%
    20:00 +21°C° 0 mm 2 mps 743 mmHg 76%
    21:00 +20°C° 0 mm 2 mps 743 mmHg 76%
    22:00 +20°C° 0 mm 2 mps 743 mmHg 77%
    23:00 +20°C° 0 mm 2 mps 743 mmHg 77%

    30 May, Thursday

    Time Temperature Precipitation Wind Pressure Humidity
    00:00 +19°C° 0 mm 2 mps 743 mmHg 78%
    01:00 +20°C° 0 mm 1 mps 743 mmHg 80%
    02:00 +19°C° 0 mm 1 mps 743 mmHg 81%
    03:00 +19°C° 0 mm 1 mps 743 mmHg 82%
    04:00 +18°C° 0 mm 1 mps 743 mmHg 83%
    05:00 +18°C° 0 mm 1 mps 743 mmHg 83%
    06:00 +20°C° 0 mm 1 mps 744 mmHg 79%
    07:00 +21°C° 0 mm 1 mps 744 mmHg 74%
    08:00 +21°C° 0 mm 0 mps 744 mmHg 69%
    09:00 +24°C° 0 mm 1 mps 744 mmHg 65%
    10:00 +26°C° 0 mm 1 mps 744 mmHg 61%
    11:00 +27°C° 0 mm 2 mps 744 mmHg 57%
    12:00 +27°C° 0 mm 3 mps 744 mmHg 57%
    13:00 +27°C° 0 mm 3 mps 744 mmHg 57%
    14:00 +27°C° 0 mm 4 mps 744 mmHg 58%
    15:00 +26°C° 0 mm 4 mps 743 mmHg 61%
    16:00 +25°C° 0 mm 4 mps 743 mmHg 65%
    17:00 +24°C° 0 mm 3 mps 743 mmHg 68%
    18:00 +22°C° 0 mm 3 mps 743 mmHg 73%
    19:00 +20°C° 0 mm 2 mps 743 mmHg 77%
    20:00 +20°C° 0 mm 1 mps 743 mmHg 82%
    21:00 +19°C° 0 mm 1 mps 743 mmHg 84%
    22:00 +18°C° 0 mm 2 mps 743 mmHg 86%
    23:00 +18°C° 0 mm 2 mps 744 mmHg 88%

    31 May, Friday

    Time Temperature Precipitation Wind Pressure Humidity
    00:00 +19°C° 0 mm 1 mps 743 mmHg 89%
    01:00 +19°C° 0 mm 1 mps 743 mmHg 90%
    02:00 +18°C° 0 mm 1 mps 743 mmHg 91%
    03:00 +18°C° 0 mm 1 mps 743 mmHg 91%
    04:00 +18°C° 0 mm 1 mps 743 mmHg 91%
    05:00 +18°C° 0 mm 1 mps 743 mmHg 91%
    06:00 +19°C° 0 mm 1 mps 743 mmHg 88%
    07:00 +20°C° 0 mm 2 mps 743 mmHg 84%
    08:00 +21°C° 0 mm 2 mps 743 mmHg 80%
    09:00 +23°C° 0.3 mm 2 mps 743 mmHg 76%
    10:00 +24°C° 0.3 mm 2 mps 743 mmHg 71%
    11:00 +25°C° 0.3 mm 2 mps 744 mmHg 67%
    12:00 +25°C° 0.2 mm 2 mps 743 mmHg 64%
    13:00 +26°C° 0.2 mm 2 mps 743 mmHg 62%
    14:00 +26°C° 0.2 mm 3 mps 743 mmHg 60%
    15:00 +26°C° 0 mm 3 mps 743 mmHg 61%
    16:00 +25°C° 0 mm 3 mps 742 mmHg 63%
    17:00 +25°C° 0 mm 3 mps 742 mmHg 64%
    18:00 +23°C° 0 mm 2 mps 742 mmHg 70%
    19:00 +21°C° 0 mm 1 mps 742 mmHg 76%
    20:00 +17°C° 0 mm 0 mps 742 mmHg 83%
    21:00 +19°C° 0 mm 1 mps 742 mmHg 84%
    22:00 +18°C° 0 mm 2 mps 742 mmHg 86%
    23:00 +17°C° 0 mm 2 mps 742 mmHg 88%

    1 June, Saturday

    Time Temperature Precipitation Wind Pressure Humidity
    00:00 +17°C° 0 mm 3 mps 742 mmHg 90%
    01:00 +15°C° 0 mm 4 mps 742 mmHg 92%
    02:00 +15°C° 0 mm 4 mps 742 mmHg 94%
    03:00 +15°C° 0 mm 4 mps 742 mmHg 94%
    04:00 +14°C° 0 mm 4 mps 742 mmHg 93%
    05:00 +14°C° 0 mm 4 mps 742 mmHg 92%
    06:00 +15°C° 0 mm 5 mps 742 mmHg 87%
    07:00 +17°C° 0 mm 5 mps 742 mmHg 81%
    08:00 +19°C° 0 mm 5 mps 742 mmHg 76%
    09:00 +21°C° 0 mm 5 mps 742 mmHg 72%
    10:00 +22°C° 0 mm 4 mps 742 mmHg 67%
    11:00 +25°C° 0 mm 4 mps 742 mmHg 63%
    12:00 +25°C° 0.2 mm 3 mps 742 mmHg 61%
    13:00 +26°C° 0.2 mm 2 mps 741 mmHg 58%
    14:00 +26°C° 0.2 mm 1 mps 741 mmHg 56%
    15:00 +26°C° 0.2 mm 1 mps 741 mmHg 57%
    16:00 +26°C° 0.2 mm 2 mps 741 mmHg 59%
    17:00 +25°C° 0.2 mm 2 mps 741 mmHg 60%
    18:00 +24°C° 0.2 mm 2 mps 741 mmHg 66%
    19:00 +21°C° 0.2 mm 2 mps 741 mmHg 72%
    20:00 +19°C° 0.2 mm 2 mps 741 mmHg 78%
    21:00 +19°C° 0.3 mm 2 mps 741 mmHg 81%
    22:00 +18°C° 0.3 mm 3 mps 741 mmHg 85%
    23:00 +17°C° 0.3 mm 4 mps 741 mmHg 88%
    Show more